Lid_Strength_Index
-0 -0 -0 -0 -0 -0 -0 -0 0 2 3 2 2 2 3 4 5 6 9 8 8 10 9 9 9 9 9 10 13 12 12 13 13 14 14 14 15 14 15 15 16 16 17 19 18 19 18 10 13 13 12 11 11 12
-0 -1 -0 -0 -0 -0 -0 -0 0 1 2 3 3 3 3 4 5 6 10 8 7 10 9 8 8 8 8 8 10 12 12 12 12 13 13 13 14 14 14 16 14 16 14 16 15 15 12 11 11 10 10 10 10 11
-0 -0 -0 -0 -0 -0 -0 -0 0 1 2 3 4 4 3 3 4 6 9 10 10 13 12 10 10 9 8 8 8 11 11 10 11 9 12 12 14 13 16 15 14 14 12 13 13 12 11 10 10 10 10 11 11 10
-0 -0 -0 -0 -0 -0 -0 -0 -0 1 1 2 3 4 3 4 5 5 8 10 11 12 15 14 8 9 8 8 8 9 10 9 9 9 12 12 14 12 14 13 12 13 12 13 13 12 11 10 10 9 9 9 10 10
-0 -0 -0 -0 -0 -0 -0 -0 -0 0 1 1 1 3 4 4 4 5 6 8 9 13 16 15 10 9 9 8 8 9 10 10 11 11 12 12 10 12 13 13 14 12 12 13 14 11 10 10 9 8 9 9 9 10
0 0 -0 -0 -0 -0 -0 -0 -0 -0 1 1 1 2 4 4 4 6 10 7 8 9 13 17 12 11 10 10 9 9 10 10 10 12 12 11 11 12 15 15 12 10 10 9 10 10 10 10 9 8 9 9 8 8
-0 -0 -0 -0 -0 -0 0 0 -0 0 0 1 2 2 3 3 4 6 10 9 7 8 13 17 17 13 12 11 11 10 10 11 11 12 13 13 13 12 16 15 12 10 9 10 9 10 11 9 9 9 9 8 7 7
0 -0 0 0 -0 -0 -0 -0 -0 -0 0 0 1 3 3 3 4 6 6 6 7 10 11 16 17 14 12 15 15 11 13 12 12 12 12 13 12 13 16 12 11 9 10 9 10 9 9 9 9 9 8 8 8 9
0 0 -0 0 -0 -0 -0 -0 -0 -0 -0 0 1 2 4 6 8 7 5 5 7 11 16 17 17 17 12 13 13 13 12 15 12 14 14 12 14 15 14 12 11 10 10 10 9 8 9 9 9 9 9 9 9 9
1 0 -0 0 0 0 0 -0 -0 0 0 3 5 9 10 10 4 5 9 12 13 14 15 15 12 15 12 14 15 15 14 16 18 15 12 14 13 11 10 11 11 10 9 9 10 10 10 10 9 10 10 9 9 10
1 0 0 0 0 0 0 -0 -0 0 2 8 12 12 10 6 9 12 13 14 15 16 15 13 11 13 11 14 15 14 16 17 18 16 16 17 17 13 10 10 9 9 9 9 9 9 9 10 10 10 10 10 10 11
0 0 0 0 0 0 -0 0 1 4 5 8 9 8 9 12 13 14 15 15 15 16 14 12 12 12 12 10 14 15 16 16 17 14 16 17 15 12 12 11 10 9 10 10 9 9 9 10 10 10 11 11 12 12
0 0 0 0 0 0 -0 0 2 2 3 6 10 12 12 13 15 16 17 16 16 14 14 12 14 13 13 12 14 15 16 16 13 15 16 16 13 12 11 10 10 9 9 10 11 11 11 12 12 13 13 13 13 13
0 0 0 0 0 0 0 1 1 2 6 10 11 14 13 15 14 14 14 14 13 12 12 11 13 13 12 13 15 15 14 14 16 17 17 16 13 11 11 11 11 12 12 12 13 12 12 12 12 12 12 12 12 12
0 0 0 0 0 -0 0 0 1 4 8 11 11 14 13 12 12 12 12 12 12 9 10 11 12 12 14 14 14 15 16 17 15 17 16 13 11 11 11 12 12 12 12 12 11 11 11 11 11 11 11 11 11 11
0 0 1 0 0 0 0 2 4 7 9 10 11 11 11 12 13 12 12 12 9 9 9 11 13 13 14 14 15 16 16 17 16 14 11 12 12 13 13 13 13 12 12 11 11 11 11 11 11 10 10 10 10 10
1 4 0 0 -0 1 2 5 7 9 9 10 11 10 10 11 12 12 10 10 7 9 13 13 14 14 13 14 15 13 15 13 11 10 10 11 12 12 12 12 11 11 11 11 11 11 10 10 10 10 10 10 9 9
3 1 0 0 2 4 7 8 8 9 11 10 12 11 11 10 10 10 10 9 9 11 12 13 12 14 15 16 15 13 11 11 10 10 10 10 11 11 11 11 11 10 10 10 10 10 9 10 10 10 10 9 9 8
1 1 0 1 3 6 8 8 8 12 10 10 11 13 13 12 10 8 8 8 8 10 11 12 15 16 14 12 12 11 10 10 10 10 10 10 10 10 10 10 10 10 10 10 10 10 9 10 10 9 9 9 9 8
0 0 1 2 4 9 10 10 8 11 11 10 10 11 12 14 13 10 9 10 9 10 13 13 13 11 10 9 9 9 9 9 9 11 11 10 10 9 9 9 10 10 10 10 9 7 9 9 9 9 9 8 9 8
2 3 4 7 9 9 9 9 10 10 10 11 9 9 10 12 12 13 10 9 10 11 12 12 12 9 8 7 7 8 9 9 10 9 10 10 9 9 9 9 9 9 10 10 10 9 8 9 8 8 8 8 8 8
7 4 8 7 9 16 14 11 10 9 9 9 9 9 10 10 10 9 8 9 9 9 11 9 8 7 7 7 7 7 8 8 8 8 7 7 9 9 9 9 9 9 9 9 9 9 9 8 8 8 8 8 7 8
4 6 8 8 14 17 15 13 15 10 11 10 9 11 10 10 9 8 10 9 9 9 8 8 8 7 7 8 8 8 7 8 8 8 8 8 8 8 9 9 8 9 9 9 8 9 9 7 7 7 8 8 8 8
5 9 10 14 14 14 15 16 13 11 10 13 13 13 12 11 9 11 13 11 10 9 9 9 8 9 9 9 9 9 9 8 9 9 9 9 10 9 9 9 9 8 8 9 9 9 8 8 7 8 8 8 8 8
9 12 12 14 17 18 17 18 14 12 12 12 14 13 13 10 12 13 12 12 11 11 11 11 10 10 10 11 10 10 9 9 10 10 10 10 10 10 10 10 9 9 8 9 10 10 10 9 9 9 9 9 9 9
16 15 17 20 18 18 17 19 20 16 13 13 13 13 14 12 13 14 13 13 13 12 12 12 11 11 11 10 11 11 11 10 10 11 10 10 10 11 11 11 11 11 9 9 10 10 10 10 9 9 9 9 8 9
19 17 18 19 16 15 15 13 13 15 18 17 15 13 13 15 16 15 13 12 11 10 10 11 11 12 12 11 11 10 10 10 10 10 10 10 10 10 10 12 12 11 9 9 10 9 9 9 9 9 9 8 8 8
19 18 17 17 15 13 16 16 17 17 16 14 13 15 14 15 16 12 11 11 12 11 11 10 11 11 12 11 11 11 11 10 10 11 11 11 11 11 11 11 10 8 9 9 9 9 9 9 9 8 8 8 7 7
15 14 13 16 14 14 15 14 14 13 13 13 14 15 15 13 12 11 11 12 12 12 12 12 12 11 11 11 11 11 11 12 13 14 14 14 14 13 11 11 11 11 11 10 9 9 9 9 8 8 8 8 7 7
15 13 15 16 16 15 14 12 13 12 12 12 13 13 13 13 12 12 14 13 13 14 13 13 12 12 13 13 13 12 12 11 13 14 15 14 14 12 12 12 12 11 11 11 11 11 9 10 10 10 10 10 10 9
13 13 14 14 14 13 12 11 12 12 12 12 13 14 14 13 13 13 13 13 13 12 13 13 13 12 13 13 13 13 13 13 13 13 13 13 13 12 12 11 11 11 11 11 11 12 12 12 12 12 12 12 11 11
16 16 16 17 17 13 11 11 12 12 12 12 13 12 12 12 14 14 13 13 14 14 13 13 14 13 12 13 14 15 10 14 14 13 13 13 12 12 11 11 11 11 11 11 12 12 12 12 13 13 12 12 13 13
16 14 14 16 17 18 15 16 18 17 14 14 14 13 13 13 16 14 13 13 14 15 15 13 13 13 12 12 12 12 12 14 13 10 10 9 9 9 9 10 10 10 12 12 12 12 13 13 13 13 13 13 13 13